This is the latest recevied weather packets stored in our database for station/object K1BES. If no packets are shown the sender has not sent any weather packets the latest 10 day(s).
| Time | Temp. | Humidity | Pressure | Rain* | Wind** | Luminosity | Snow |
|---|---|---|---|---|---|---|---|
| 1788553730 | 32.78° C | 72% | 1016.1 hPa | 0 mm | - | 82 W/m² | - |
| 1788553426 | 32.78° C | 71% | 1016.4 hPa | 0 mm | - | 101 W/m² | - |
| 1788553122 | 33.33° C | 71% | 1016.3 hPa | 0 mm | - | 164 W/m² | - |
| 1788552822 | 33.33° C | 71% | 1016.4 hPa | 0 mm | - | 243 W/m² | - |
| 1788552517 | 33.89° C | 68% | 1016.5 hPa | 0 mm | - | 258 W/m² | - |
| 1788552216 | 33.89° C | 68% | 1016.6 hPa | 0 mm | - | 790 W/m² | - |
| 1788551916 | 34.44° C | 68% | 1016.9 hPa | 0 mm | - | 262 W/m² | - |
| 1788551614 | 34.44° C | 68% | 1016.6 hPa | 0 mm | - | 761 W/m² | - |
| 1788551324 | 34.44° C | 67% | 1016.5 hPa | 0 mm | - | 809 W/m² | - |
| 1788551009 | 34.44° C | 67% | 1016.4 hPa | 0 mm | - | 806 W/m² | - |
| 1788550704 | 33.89° C | 69% | 1016.5 hPa | 0 mm | - | 827 W/m² | - |
| 1788550399 | 33.89° C | 68% | 1016.7 hPa | 0 mm | - | 839 W/m² | - |
| 1788550094 | 34.44° C | 66% | 1016.7 hPa | 0 mm | - | 872 W/m² | - |
| 1788549789 | 34.44° C | 66% | 1016.7 hPa | 0 mm | - | 872 W/m² | - |
| 1788549486 | 34.44° C | 67% | 1016.7 hPa | 0 mm | - | 882 W/m² | - |
| 1788549183 | 34.44° C | 67% | 1016.8 hPa | 0 mm | - | 899 W/m² | - |
| 1788548879 | 34.44° C | 69% | 1017.1 hPa | 0 mm | - | 902 W/m² | - |
| 1788548574 | 33.89° C | 67% | 1017.2 hPa | 0 mm | - | 920 W/m² | - |
| 1788548271 | 33.89° C | 68% | 1017.3 hPa | 0 mm | - | 929 W/m² | - |
| 1788547965 | 33.89° C | 67% | 1017.1 hPa | 0 mm | - | 934 W/m² | - |
| 1788547664 | 33.89° C | 68% | 1017.1 hPa | 0 mm | - | 944 W/m² | - |
| 1788547360 | 33.89° C | 68% | 1017.3 hPa | 0 mm | - | 951 W/m² | - |
| 1788547056 | 33.89° C | 68% | 1017.3 hPa | 0 mm | - | 959 W/m² | - |
| 1788546751 | 33.89° C | 67% | 1017.3 hPa | 0 mm | - | 968 W/m² | - |
| 1788546446 | 33.89° C | 67% | 1017.4 hPa | 0 mm | - | 975 W/m² | - |
* Rain latest hour (hover to see other rain measurements)
** Current wind speed in m/s (hover to see current wind gust speed)